Flag Weather past 2 weeks in Crailsheim, Baden-Württemberg, Germany

Now
52 °F

Fog.


Feels Like: 51 °F
Forecast: 44 / 60 °F
Wind: 3 mph from Southeast

Location: Niederstetten

Current Time: Oct 30, 2014 at 7:25:35 PM

Latest Report: Oct 30, 2014 at 6:20 PM


Visibility: 2 mi

Pressure: 30.30 "Hg

Humidity: 94%

Dew point: 50 °F

Location of CrailsheimLocation

Historic Weather in Crailsheim — Graph

°F

Crailsheim temperature yesterday

Maximum temperature yesterday: 48 °F (at 10:20 AM)
Minimum temperature yesterday: 41 °F (at 12:20 AM)
Average temperature yesterday: 45 °F

Past Weeks' High & Low Weather Summary

 TemperatureHumidityPressure
High70 °F (Oct 19, 1:20 PM)100% (Oct 16, 4:20 AM)30.33 "Hg (Oct 16, 4:20 AM)
Low37 °F (Oct 24, 6:20 AM)60% (Oct 19, 2:20 PM)29.59 "Hg (Oct 21, 7:20 PM)
Average50 °F88%30.09 "Hg
* Reported Oct 15 7:20 PM — Oct 30 6:20 PM, Crailsheim, Weather by CustomWeather, © 2014

Note: Actual official high and low records may vary slightly from our data, if they occured in-between our weather recording intervals... More about our weather records

Advertising

Crailsheim weather history for previous 24 hours

 ConditionsComfort  
Time TempWeatherWind HumidityBarometerVisibility
6:20 PM
Oct 30
52 °FFog.3 mph94%30.30 "Hg2 mi
5:20 PM52 °FFog.17 mph94%30.30 "Hg3 mi
4:20 PM54 °FLow clouds.3 mph88%30.27 "Hg4 mi
3:20 PM54 °FLow clouds.3 mph88%30.27 "Hg4 mi
2:20 PM52 °FFog.5 mph94%30.27 "Hg3 mi
1:20 PM52 °FFog.3 mph94%30.27 "Hg3 mi
12:20 PM52 °FFog.3 mph94%30.27 "Hg3 mi
11:46 AM50 °FFog.5 mph100%30.27 "Hg2 mi
11:20 AM50 °FFog.3 mph100%30.27 "Hg2 mi
10:20 AM48 °FFog.5 mph100%30.27 "Hg0 mi
9:20 AM48 °FFog.1 mph94%30.24 "Hg0 mi
8:20 AM46 °FFog.1 mph100%30.24 "Hg0 mi
7:20 AM46 °FFog.1 mph100%30.21 "Hg0 mi
6:49 AM46 °FFog.3 mph100%30.21 "Hg0 mi
6:20 AM45 °FFog.3 mph100%30.21 "Hg1 mi
5:20 AM45 °FFog.No wind100%30.18 "Hg1 mi
4:45 AM46 °FFog.1 mph93%30.18 "Hg1 mi
4:20 AM45 °FFog.2 mph100%30.18 "Hg1 mi
3:20 AM45 °FDrizzle. Fog.2 mph93%30.18 "Hg2 mi
2:20 AM45 °FLight rain. Mostly cloudy.1 mph100%30.15 "Hg4 mi
1:20 AM45 °FLight rain. Mostly cloudy.2 mph93%30.15 "Hg4 mi
12:20 AM43 °FLight rain. Mostly cloudy.2 mph100%30.15 "Hg5 mi
11:20 PM
Oct 29
43 °FPassing clouds.2 mph93%30.15 "HgN/A
10:20 PM41 °FPassing clouds.3 mph100%30.15 "HgN/A
9:20 PM43 °FPassing clouds.No wind93%30.12 "HgN/A
8:20 PM43 °FPassing clouds.1 mph93%30.12 "HgN/A
7:20 PM45 °FPassing clouds.2 mph87%30.09 "HgN/A
Weather by CustomWeather, © 2014

See weather overviewHow to use our weather pages